Waarnemingen

Advertentie
Mijn weer
Cagliari/Elmas, Italië (16560): temperatuur & dauwpunt: 18.02.2018 13:00:00 - 24.02.2018 13:00:00 (CET)Cagliari/Elmas, Italië (16560): windsnelheid: 18.02.2018 13:00:00 - 24.02.2018 13:00:00 (CET)Cagliari/Elmas, Italië (16560): windrichting: 18.02.2018 13:00:00 - 24.02.2018 13:00:00 (CET)Cagliari/Elmas, Italië (16560): luchtdruk: 18.02.2018 13:00:00 - 24.02.2018 13:00:00 (CET)Cagliari/Elmas, Italië (16560): zicht: 18.02.2018 13:00:00 - 24.02.2018 13:00:00 (CET)Cagliari/Elmas, Italië (16560): neerslag: 18.02.2018 13:00:00 - 24.02.2018 13:00:00 (CET)
Datum & Tijd tt [°C] td [°C] ff [km/u] ff [kn] dd ppp [hPa] vv [km] rr [mm]
24.02.2018 13:00:00 10,8 7,5 13 7 WNW 1006,4 10 -
24.02.2018 12:00:00 11,0 6,0 18 10 WNW - 10 -
24.02.2018 11:00:00 11,0 5,0 18 10 W - 10 -
24.02.2018 10:00:00 10,7 4,6 9 5 NW 1006,4 10 0,0
24.02.2018 09:00:00 10,0 4,0 5 3 N - 10 -
24.02.2018 08:00:00 9,0 3,0 8 4 W - 10 -
24.02.2018 07:00:00 8,2 3,2 5 3 NW 1005,3 10 -
24.02.2018 06:00:00 8,0 3,0 13 7 W - 10 -
24.02.2018 05:00:00 9,0 4,0 22 12 W - 10 -
24.02.2018 04:00:00 5,9 3,2 8 4 NNW 1004,5 10 0,0
24.02.2018 03:00:00 7,0 4,0 13 7 NW - 10 -
24.02.2018 02:00:00 6,0 4,0 8 4 NW - 10 -
24.02.2018 01:00:00 6,9 4,9 8 4 NW 1004,4 10 -
24.02.2018 00:00:00 6,0 4,0 11 6 NNW - 10 -
23.02.2018 23:00:00 8,0 5,0 13 7 WNW - 10 -
23.02.2018 22:00:00 7,9 5,2 13 7 WNW 1003,5 10 0,0
23.02.2018 21:00:00 9,0 6,0 16 9 NW - 10 -
23.02.2018 20:00:00 9,0 6,0 15 8 NW - 10 -
23.02.2018 19:00:00 9,3 5,2 21 11 WNW 1002,2 10 -
23.02.2018 18:00:00 11,0 5,0 26 14 NW - 10 -
23.02.2018 17:00:00 12,0 4,0 34 18 NW - 10 -
23.02.2018 16:00:00 13,1 3,8 28 15 NW 1000,4 10 0,0
23.02.2018 15:00:00 14,0 4,0 16 9 WNW - 10 -
23.02.2018 14:00:00 13,0 5,0 15 8 N - 10 -
23.02.2018 13:00:00 11,8 4,1 11 6 N 1001,0 10 -
23.02.2018 12:00:00 11,0 5,0 9 5 N - 10 -
23.02.2018 11:00:00 8,0 4,0 9 5 NNW - 10 -
23.02.2018 10:00:00 5,5 3,4 11 6 NNW 1002,1 10 0,0
23.02.2018 09:00:00 3,0 2,0 9 5 NNW - 10 -
23.02.2018 08:00:00 2,0 1,0 15 8 NNW - 10 -
23.02.2018 07:00:00 1,7 0,9 11 6 NW 1001,0 10 -
23.02.2018 06:00:00 1,0 1,0 13 7 NNW - 10 -
23.02.2018 05:00:00 3,0 2,0 13 7 NW - 10 -
23.02.2018 04:00:00 2,4 1,6 8 4 NW 1001,2 10 0,0
23.02.2018 03:00:00 3,0 2,0 11 6 NNW - 10 -
23.02.2018 02:00:00 4,0 2,0 11 6 NW - 10 -
23.02.2018 01:00:00 3,9 2,5 13 7 NNW 1002,1 10 -
23.02.2018 00:00:00 5,0 3,0 8 4 N - 10 -
22.02.2018 23:00:00 5,0 3,0 5 3 NO - 10 -
22.02.2018 22:00:00 5,0 3,3 11 6 N 1001,9 10 0,0
22.02.2018 21:00:00 6,0 4,0 9 5 N - 10 -
22.02.2018 20:00:00 7,0 4,0 13 7 NW - 10 -
22.02.2018 19:00:00 8,1 4,0 15 8 NW 1001,2 10 -
22.02.2018 18:00:00 9,0 5,0 18 10 NW - 10 -
22.02.2018 17:00:00 11,0 5,0 21 11 NW - 10 -
22.02.2018 16:00:00 10,7 5,7 24 13 NW 999,9 10 0,0
22.02.2018 15:00:00 10,0 4,0 16 9 NNW - 10 -
22.02.2018 14:00:00 11,0 5,0 15 8 NW - 10 -
22.02.2018 13:00:00 10,5 4,6 18 10 NW 1000,1 10 -
22.02.2018 12:00:00 9,0 4,0 16 9 NW - 10 -
22.02.2018 11:00:00 9,0 5,0 16 9 NW - 10 -
22.02.2018 10:00:00 8,0 5,1 15 8 NW 1000,2 10 0,0
22.02.2018 09:00:00 7,0 5,0 9 5 WNW - 10 -
22.02.2018 08:00:00 6,0 4,0 4 2 - - 10 -
22.02.2018 07:00:00 6,1 4,8 16 9 ONO 999,8 6 -
22.02.2018 06:00:00 6,0 5,0 8 4 NO - 6 -
22.02.2018 05:00:00 7,0 5,0 11 6 WNW - 6 -
22.02.2018 04:00:00 6,7 5,6 13 7 NNW 1000,4 6 0,0
22.02.2018 03:00:00 8,0 6,0 13 7 NW - 6 -
22.02.2018 02:00:00 8,0 5,0 4 2 - - 8 -
22.02.2018 01:00:00 8,6 5,0 4 2 - 1000,9 8 -
22.02.2018 00:00:00 8,0 6,0 5 3 NNW - 8 -
21.02.2018 23:00:00 9,0 6,0 5 3 W - 8 -
21.02.2018 22:00:00 8,5 4,7 4 2 NW 1001,9 8 0,0
21.02.2018 21:00:00 9,0 5,0 8 4 N - 10 -
21.02.2018 20:00:00 9,0 5,0 4 2 - - 10 -
21.02.2018 19:00:00 9,4 5,0 8 4 WZW 1001,9 10 -
21.02.2018 18:00:00 10,0 4,0 13 7 WZW - 10 -
21.02.2018 17:00:00 11,0 2,0 9 5 W - 10 -
21.02.2018 16:00:00 11,9 0,4 8 4 WNW 1001,5 10 0,0
21.02.2018 15:00:00 13,0 1,0 11 6 N - 10 -
21.02.2018 14:00:00 12,0 0,0 11 6 N - 10 -
21.02.2018 13:00:00 12,3 -0,7 15 8 NW 1002,9 10 -
21.02.2018 12:00:00 11,0 3,0 11 6 WNW - 10 -
21.02.2018 11:00:00 9,0 4,0 9 5 WNW - 10 -
21.02.2018 10:00:00 6,7 4,7 9 5 WNW 1003,5 10 0,0
21.02.2018 09:00:00 4,0 3,0 5 3 NW - 10 -
21.02.2018 08:00:00 2,0 1,0 11 6 NNW - 10 -
21.02.2018 07:00:00 1,3 0,6 11 6 NNW 1003,6 10 -
21.02.2018 06:00:00 2,0 1,0 9 5 N - 10 -
21.02.2018 05:00:00 2,0 2,0 11 6 NNW - 10 -
21.02.2018 04:00:00 3,1 2,4 15 8 N 1003,5 10 0,0
21.02.2018 03:00:00 4,0 3,0 15 8 NNW - 10 -
21.02.2018 02:00:00 4,0 3,0 15 8 NNW - 10 -
21.02.2018 01:00:00 4,4 3,7 16 9 N 1004,3 10 -
21.02.2018 00:00:00 4,0 4,0 9 5 NNW - 7 -
20.02.2018 23:00:00 6,0 5,0 13 7 NW - 0,6 -
20.02.2018 22:00:00 6,1 5,4 9 5 N 1003,5 7 0,0
20.02.2018 21:00:00 7,0 6,0 4 2 - - 10 -
20.02.2018 20:00:00 8,0 6,0 5 3 NNO - 10 -
20.02.2018 19:00:00 7,4 6,1 2 1 - 1003,3 10 -
20.02.2018 18:00:00 8,0 7,0 2 1 - - 10 -
20.02.2018 17:00:00 9,0 6,0 2 1 - - 9 -
20.02.2018 16:00:00 9,2 5,7 5 3 ZW 1004,5 10 0,0
20.02.2018 15:00:00 9,0 6,0 15 8 W - 10 -
20.02.2018 14:00:00 9,0 5,0 5 3 Z - 10 -
20.02.2018 13:00:00 9,3 5,8 13 7 ZZW 1007,4 10 -
20.02.2018 12:00:00 9,0 5,0 16 9 W - 10 -
20.02.2018 11:00:00 9,0 7,0 5 3 NW - 10 -
20.02.2018 10:00:00 8,6 6,6 5 3 WNW 1009,3 10 0,0
20.02.2018 09:00:00 6,0 6,0 2 1 - - 10 -
20.02.2018 08:00:00 6,0 5,0 5 3 N - 10 -
20.02.2018 07:00:00 5,9 5,0 5 3 WNW 1010,2 10 -
20.02.2018 06:00:00 6,0 5,0 9 5 WNW - 10 -
20.02.2018 05:00:00 6,0 4,0 9 5 N - 10 -
20.02.2018 04:00:00 3,9 2,7 5 3 NNW 1011,1 10 0,0
20.02.2018 03:00:00 5,0 3,0 13 7 NNW - 10 -
20.02.2018 02:00:00 5,0 4,0 11 6 NNW - 10 -
20.02.2018 01:00:00 6,1 4,2 9 5 NNW 1012,1 10 -
20.02.2018 00:00:00 5,0 3,0 9 5 N - 10 -
19.02.2018 23:00:00 6,0 4,0 5 3 N - 10 -
19.02.2018 22:00:00 7,7 5,2 9 5 NW 1013,0 10 0,0
19.02.2018 21:00:00 8,0 4,0 8 4 NNW - 10 -
19.02.2018 20:00:00 8,0 5,0 11 6 NNW - 10 -
19.02.2018 19:00:00 10,3 5,2 9 5 WNW 1013,1 10 -
19.02.2018 18:00:00 12,0 5,0 15 8 WNW - 10 -
19.02.2018 17:00:00 13,0 7,0 16 9 NNW - 10 -
19.02.2018 16:00:00 13,1 9,3 18 10 NNW 1013,0 10 0,0
19.02.2018 15:00:00 11,0 9,0 21 11 NNW - 10 -
19.02.2018 14:00:00 11,0 10,0 8 4 WNW - 10 -
19.02.2018 13:00:00 12,8 8,1 15 8 WNW 1014,1 10 -
19.02.2018 12:00:00 13,0 7,0 16 9 WNW - 10 -
19.02.2018 11:00:00 13,0 8,0 15 8 WNW - 10 -
19.02.2018 10:00:00 12,0 8,3 11 6 NW 1014,7 10 0,0
19.02.2018 09:00:00 10,0 8,0 8 4 NNW - 10 -
19.02.2018 08:00:00 8,0 6,0 5 3 N - 10 -
19.02.2018 07:00:00 7,3 5,7 8 4 NNW 1014,5 10 -
19.02.2018 06:00:00 8,0 8,0 8 4 NW - 10 -
19.02.2018 05:00:00 9,0 6,0 8 4 NNO - 10 -
19.02.2018 04:00:00 8,7 6,4 8 4 N 1014,1 10 0,0
19.02.2018 03:00:00 8,0 6,0 8 4 N - 10 -
19.02.2018 02:00:00 8,0 5,0 9 5 NNW - 10 -
19.02.2018 01:00:00 7,5 5,3 8 4 W 1015,1 10 -
19.02.2018 00:00:00 7,0 5,0 8 4 N - 10 -
18.02.2018 23:00:00 8,0 5,0 13 7 NNW - 10 -
18.02.2018 22:00:00 9,0 4,7 13 7 NNW 1015,6 10 0,0
18.02.2018 21:00:00 11,0 6,0 16 9 NW - 10 -
18.02.2018 20:00:00 11,0 6,0 16 9 N - 10 -
18.02.2018 19:00:00 10,7 5,3 24 13 NNW 1015,7 10 -
18.02.2018 18:00:00 11,0 5,0 29 16 NNW - 10 -
18.02.2018 17:00:00 13,0 4,0 37 20 NNW - 10 -
18.02.2018 16:00:00 13,9 5,0 39 21 NNW 1015,1 10 0,0
18.02.2018 15:00:00 15,0 6,0 39 21 NNW - 10 -
18.02.2018 14:00:00 16,0 7,0 34 18 NNW - 10 -
18.02.2018 13:00:00 15,3 7,0 34 18 NW 1016,2 10 -

tt = temperatuur
td = dauwpunt
ff = windsnelheid
dd = windrichting
ppp = luchtdruk
vv = zicht
rr = neerslag

Weerstations in de omgeving